Regional Weather Roundup
Issued by NWS

Home | Current Version | Previous Version | Graphics & Text | Print | Product List | Glossary Off
Versions: 1 2 3 4 5 6 7 8 9 10 11 12 13 14 15 16 17 18 19 20 21 22 23 24 25 26 27 28 29 30 31 32 33 34 35 36 37 38 39 40 41 42 43 44 45 46 47 48 49 50

000
ASUS43 KLSX 180507
RWRMO

WEATHER SUMMARY FOR MISSOURI
NATIONAL WEATHER SERVICE SPRINGFIELD MO
1100 PM CST WED JAN 17 2018

NOTE: "FAIR" INDICATES FEW OR NO CLOUDS BELOW 12,000 FEET WITH NO
       SIGNIFICANT WEATHER AND/OR OBSTRUCTIONS TO VISIBILITY.
       CURRENT SKY AND/OR WEATHER CONDITIONS ARE NOT AVAILABLE FOR
       CHILLICOTHE AND FARMINGTON.

MOZ001>031-035>038-043-044-053-054-180600-
...NORTHERN AND WESTERN MISSOURI...

CITY           SKY/WX    TMP DP  RH WIND       PRES   REMARKS
KANSAS CTY INT CLOUDY    17  10  74 SW13      30.40F WCI   4
KANSAS C DTWN  CLOUDY    20  11  68 SW8       30.44F WCI  10
LEE`S SUMMIT   CLOUDY    16  10  77 SW14      30.43F WCI   2
ST JOSEPH      CLOUDY    14  10  84 S7        30.40F WCI   4
CHILLICOTHE      N/A     15   8  73 S7        30.43F WCI   5
KIRKSVILLE     CLOUDY    16  11  80 SW13      30.38F WCI   2

$$
MOZ066>068-077>081-088>096-101>105-180600-
...SOUTHWEST MISSOURI...

CITY           SKY/WX    TMP DP  RH WIND       PRES   REMARKS
SPRINGFIELD    CLOUDY    15   6  67 S9        30.46F WCI   3
JOPLIN         CLOUDY    15   7  70 S8        30.50F WCI   4

$$
MOZ032>034-039>042-045>050-055>058-069>072-180600-
...CENTRAL MISSOURI...

CITY           SKY/WX    TMP DP  RH WIND       PRES   REMARKS
COLUMBIA       CLEAR     15   8  73 SW8       30.46F WCI   4
JEFFERSON CITY CLOUDY    19   8  62 CALM      30.50F
ROLLA          CLOUDY    16   7  67 SW12      30.46F WCI   3
SEDALIA        CLEAR     17  11  77 SW12      30.46F WCI   4
WHITEMAN AFB   CLOUDY    15   6  68 SW12      30.41F WCI   2
WARRENSBURG    CLOUDY    14   9  79 S6        30.47S WCI   5
OSAGE BEACH    CLEAR     12   4  70 S5        30.49F WCI   4

$$
MOZ051-052-059>065-180600-
...EAST CENTRAL MISSOURI...

CITY           SKY/WX    TMP DP  RH WIND       PRES   REMARKS
ST LOUIS INTL  CLOUDY    19   9  65 SW7       30.47F WCI  10
SPIRIT OF STL  CLOUDY    21   9  59 SW12      30.47F WCI   9
ST CHARLES     CLOUDY    13   6  74 CALM      30.47F

$$
MOZ072>076-082>087-097>100-106>115-180600-
...SOUTH CENTRAL AND SOUTHEAST MISSOURI...

CITY           SKY/WX    TMP DP  RH WIND       PRES   REMARKS
CAPE GIRARDEAU FAIR      11   7  84 SW6       30.57F WCI   1
FARMINGTON     CLEAR     12   4  70 CALM      30.49F
POPLAR BLUFF   FAIR       9   6  88 CALM      30.57F
WEST PLAINS    CLOUDY    15   6  67 SW5       30.50F WCI   8

$$


USA.gov is the U.S. government's official web portal to all federal, state and local government web resources and services.